Notices

What's New in latest Release from April 7th, 2021:

- Updated Glossary, including Speed of Maximum Gust, and Total Hourly Precipitation

- Updated national and regional climate services offices contacts and prices information

- Addition of station inventory lists for 1981-2010, 1971-2000, and 1961-1990 Normals.

If you haven't already, please take our survey and provide feedback about our website: https://eccc.sondage-survey.ca/f/LanguageSelection.aspx?s=442ca660-fcf1-47c0-95a9-59707d6fd709

Hourly Data Report for October 31, 2017

VICTORIA UNIVERSITY CS
BRITISH COLUMBIA

48°27'25.200" N
123°18'16.600" W
60.10 m
1018598
71783
WYJ

Download Data

Hourly Data (October 2017)
Hourly Data Report for October 31, 2017
TIME
LST
Temp Definition
°C
Dew Point Definition
°C
Rel Hum Definition
%
Precip. Amount Definition
mm

Wind Dir Definition
10's deg

Wind Spd Definition
km/h
Visibility Definition
km
Stn Press Definition
kPa
Hmdx Definition


Wind Chill Definition


Weather Definition


00:00 4.6 3.2 91 0.0 33 2   101.35     LegendNANA
01:00 4.1 2.9 92 0.0 29 3   101.31     LegendNANA
02:00 4.3 2.2 87 0.0 0 1   101.30     LegendNANA
03:00 3.6 2.0 89 0.0 25 2   101.27     LegendNANA
04:00 3.2 1.6 89 0.0 24 2   101.22     LegendNANA
05:00 3.3 1.7 90 0.0   0   101.17     LegendNANA
06:00 2.5 1.2 91 0.0   0   101.15     LegendNANA
07:00 4.2 3.6 96 0.0 2 3   101.14     LegendNANA
08:00 6.4 5.8 96 0.0 31 2   101.14     LegendNANA
09:00 8.7 7.0 90 0.0 5 3   101.08     LegendNANA
10:00 10.5 7.4 81 0.0 9 4   101.04     LegendNANA
11:00 10.9 7.6 80 0.0 10 4   100.95     LegendNANA
12:00 11.0 7.2 77 0.0 10 3   100.86     LegendNANA
13:00 11.5 7.5 77 0.0 10 3   100.76     LegendNANA
14:00 11.4 6.5 71 0.0 11 3   100.66     LegendNANA
15:00 11.2 6.7 74 0.0 13 1   100.57     LegendNANA
16:00 9.8 4.6 70 0.0 16 6   100.48     LegendNANA
17:00 8.5 5.5 81 0.0 17 6   100.43     LegendNANA
18:00 8.5 6.7 88 0.0 23 6   100.40     LegendNANA
19:00 8.1 7.2 94 0.0 24 4   100.30     LegendNANA
20:00 9.9 6.2 78 0.0 25 8   100.20     LegendNANA
21:00 8.8 5.5 80 0.0 26 4   100.18     LegendNANA
22:00 7.9 6.1 88 0.0 26 3   100.14     LegendNANA
23:00 8.3 7.2 93 0.0 27 7   100.13     LegendNANA

Notes on Data Quality.

Legend

  • E = Estimated
  • M = Missing
  • NA = Not Available*
  • [empty] = Indicates an unobserved value
Date modified: